Weather History for Summerville, SC

Change the Weather History Date:

Wednesday, December 5, 2012

  Actual Average (KCHS) Record (KCHS)
Temperature  
Mean Temperature 17 °C 12 °C  
Max Temperature 25 °C 18 °C 27 °C (2013)
Min Temperature 8 °C 6 °C -5 °C (1969)
Degree Days  
Heating Degree Days 4 12  
Month to date heating degree days 58  
Since 1 July heating degree days 350  
Cooling Degree Days 0 0  
Month to date cooling degree days 0  
Year to date cooling degree days 2297  
Growing Degree Days 12 (Base 50)    
Moisture  
Dew Point 11 °C    
Average Humidity 81    
Maximum Humidity 100    
Minimum Humidity 41    
Precipitation  
Precipitation 0.00 mm 2.29 mm 2.82 mm (1994)
Month to date precipitation 0.46  
Year to date precipitation 48.38  
Sea Level Pressure  
Sea Level Pressure 1022 hPa    
Wind  
Wind Speed 2 km/h (West)    
Max Wind Speed 13 km/h    
Max Gust Speed -    
Visibility 16 kilometers    
Events      
T = Trace of Precipitation, MM = Missing Value Source: NWS Daily Summary

Daily Weather History Graph

Daily Weather History Graph

Search for Another Location

Airport:

Trip Planner

Search our weather history database for the weather conditions in past years. The results will help you decide how hot, cold, wet, or windy it might be!

Date:

Astronomy

Dec. 05, 2012 Rise Set
Actual Time 7:09 AM EST 5:13 PM EST
Civil Twilight 6:42 AM EST 5:41 PM EST
Nautical Twilight 6:12 AM EST 6:11 PM EST
Astronomical Twilight 5:42 AM EST 6:41 PM EST
Moon 11:46 PM EST (12/5) 11:46 AM EST (12/5)
Length of Visible Light 10h 58m
Length of Day
10h 04m
Waning Gibbous, 60% of the Moon is Illuminated
Dec 5
Waning Gibbous
Dec 6
Last Quarter
Dec 13
New
Dec 20
First Quarter
Dec 28
Full

Hourly Weather History & Observations

Time (EST) Temp. Dew Point Humidity Pressure Visibility Wind Dir Wind Speed Gust Speed Precip Events Conditions
12:15 AM 12.0 °C 12.0 °C 100% 1024.3 hPa 16.1 km Calm Calm - N/A   Clear
12:35 AM 11.0 °C 11.0 °C 100% 1024.3 hPa 16.1 km Calm Calm - N/A   Clear
12:55 AM 11.0 °C 11.0 °C 100% 1023.9 hPa 16.1 km Calm Calm - N/A   Clear
1:15 AM 10.0 °C 10.0 °C 100% 1023.9 hPa 16.1 km Calm Calm - N/A   Clear
1:35 AM 10.0 °C 10.0 °C 100% 1023.6 hPa 16.1 km Calm Calm - N/A   Clear
1:55 AM 10.0 °C 10.0 °C 100% 1023.6 hPa 16.1 km Calm Calm - N/A   Clear
2:15 AM 10.0 °C 10.0 °C 100% 1023.2 hPa 16.1 km Calm Calm - N/A   Clear
2:35 AM 10.0 °C 10.0 °C 100% 1023.2 hPa 16.1 km Calm Calm - N/A   Clear
2:55 AM 10.0 °C 10.0 °C 100% 1023.2 hPa 16.1 km Calm Calm - N/A   Clear
3:15 AM 9.0 °C 9.0 °C 100% 1022.9 hPa 16.1 km Calm Calm - N/A   Clear
3:35 AM 9.0 °C 9.0 °C 100% 1022.9 hPa 16.1 km Calm Calm - N/A   Clear
3:55 AM 9.0 °C 9.0 °C 100% 1022.6 hPa 16.1 km Calm Calm - N/A   Clear
4:15 AM 9.0 °C 9.0 °C 100% 1022.2 hPa 16.1 km Calm Calm - N/A   Clear
4:35 AM 8.0 °C 8.0 °C 100% 1022.2 hPa 16.1 km Calm Calm - N/A   Clear
4:55 AM 8.0 °C 8.0 °C 100% 1021.9 hPa 16.1 km Calm Calm - N/A   Clear
5:15 AM 8.0 °C 8.0 °C 100% 1022.2 hPa 16.1 km Calm Calm - N/A   Clear
5:35 AM 8.0 °C 8.0 °C 100% 1022.2 hPa 16.1 km Calm Calm - N/A   Scattered Clouds
5:55 AM 8.0 °C 8.0 °C 100% 1022.2 hPa 16.1 km Calm Calm - N/A   Clear
6:15 AM 8.0 °C 8.0 °C 100% 1022.6 hPa 16.1 km Calm Calm - N/A   Clear
6:35 AM 8.0 °C 8.0 °C 100% 1022.6 hPa 11.3 km Calm Calm - N/A   Clear
6:55 AM 8.0 °C 8.0 °C 100% 1022.9 hPa 11.3 km Calm Calm - N/A   Clear
7:15 AM 8.0 °C 8.0 °C 100% 1023.2 hPa 16.1 km Calm Calm - N/A   Clear
7:35 AM 8.0 °C 8.0 °C 100% 1023.2 hPa 16.1 km Calm Calm - N/A   Clear
7:55 AM 8.0 °C 8.0 °C 100% 1023.2 hPa 16.1 km Calm Calm - N/A   Clear
9:55 AM 17.0 °C 15.0 °C 88% 1023.9 hPa 16.1 km WSW 5.6 km/h / 1.5 m/s - N/A   Mostly Cloudy
10:15 AM 18.0 °C 14.0 °C 77% 1023.9 hPa 16.1 km WSW 7.4 km/h / 2.1 m/s - N/A   Scattered Clouds
10:35 AM 20.0 °C 14.0 °C 68% 1023.6 hPa 16.1 km WSW 7.4 km/h / 2.1 m/s - N/A   Clear
10:55 AM 21.0 °C 14.0 °C 64% 1023.2 hPa 16.1 km West 9.3 km/h / 2.6 m/s - N/A   Clear
11:15 AM 22.0 °C 13.0 °C 57% 1022.9 hPa 16.1 km West 13.0 km/h / 3.6 m/s - N/A   Clear
11:35 AM 22.0 °C 13.0 °C 57% 1022.6 hPa 16.1 km West 13.0 km/h / 3.6 m/s - N/A   Clear
11:55 AM 23.0 °C 13.0 °C 53% 1021.9 hPa 16.1 km West 11.1 km/h / 3.1 m/s - N/A   Clear
12:15 PM 23.0 °C 12.0 °C 50% 1021.6 hPa 16.1 km West 7.4 km/h / 2.1 m/s - N/A   Clear
12:35 PM 23.0 °C 12.0 °C 50% 1021.2 hPa 16.1 km WSW 9.3 km/h / 2.6 m/s - N/A   Clear
12:55 PM 24.0 °C 12.0 °C 47% 1020.9 hPa 16.1 km SSW 5.6 km/h / 1.5 m/s - N/A   Clear
1:15 PM 24.0 °C 11.0 °C 44% 1020.5 hPa 16.1 km SW 7.4 km/h / 2.1 m/s - N/A   Clear
1:35 PM 24.0 °C 11.0 °C 44% 1020.2 hPa 16.1 km WSW 9.3 km/h / 2.6 m/s - N/A   Clear
2:15 PM 25.0 °C 11.0 °C 41% 1019.9 hPa 16.1 km WSW 9.3 km/h / 2.6 m/s - N/A   Clear
2:35 PM 25.0 °C 12.0 °C 44% 1019.5 hPa 16.1 km WSW 5.6 km/h / 1.5 m/s - N/A   Clear
2:55 PM 24.0 °C 12.0 °C 47% 1019.5 hPa 16.1 km West 11.1 km/h / 3.1 m/s - N/A   Clear
3:15 PM 23.0 °C 12.0 °C 50% 1019.5 hPa 16.1 km NW 5.6 km/h / 1.5 m/s - N/A   Clear
3:35 PM 23.0 °C 12.0 °C 50% 1019.5 hPa 16.1 km WNW 11.1 km/h / 3.1 m/s - N/A   Clear
3:55 PM 23.0 °C 12.0 °C 50% 1019.5 hPa 16.1 km WNW 5.6 km/h / 1.5 m/s - N/A   Clear
4:15 PM 22.0 °C 12.0 °C 53% 1019.5 hPa 16.1 km Calm Calm - N/A   Clear
4:35 PM 22.0 °C 12.0 °C 53% 1019.2 hPa 16.1 km Calm Calm - N/A   Clear
4:55 PM 22.0 °C 13.0 °C 57% 1019.5 hPa 16.1 km Calm Calm - N/A   Clear
5:15 PM 20.0 °C 13.0 °C 64% 1019.5 hPa 16.1 km Calm Calm - N/A   Clear
5:35 PM 18.0 °C 13.0 °C 73% 1019.5 hPa 16.1 km Calm Calm - N/A   Clear
5:55 PM 17.0 °C 13.0 °C 77% 1019.5 hPa 16.1 km Calm Calm - N/A   Clear
6:15 PM 17.0 °C 13.0 °C 77% 1019.5 hPa 16.1 km Calm Calm - N/A   Clear
6:35 PM 16.0 °C 13.0 °C 82% 1019.9 hPa 16.1 km Calm Calm - N/A   Clear
6:55 PM 15.0 °C 13.0 °C 88% 1019.9 hPa 16.1 km Calm Calm - N/A   Clear
7:15 PM 15.0 °C 13.0 °C 88% 1019.9 hPa 16.1 km Calm Calm - N/A   Clear
7:35 PM 14.0 °C 13.0 °C 94% 1019.9 hPa 11.3 km Calm Calm - N/A   Clear
7:55 PM 14.0 °C 13.0 °C 94% 1019.9 hPa 16.1 km Calm Calm - N/A   Clear
8:15 PM 13.0 °C 13.0 °C 100% 1020.2 hPa 16.1 km Calm Calm - N/A   Clear
8:35 PM 13.0 °C 13.0 °C 100% 1020.2 hPa 16.1 km Calm Calm - N/A   Clear
8:55 PM 13.0 °C 13.0 °C 100% 1020.5 hPa 16.1 km Calm Calm - N/A   Clear
9:15 PM 12.0 °C 12.0 °C 100% 1020.5 hPa 16.1 km Calm Calm - N/A   Clear